[[{"header":{"parameterUnit":"m.s-1","parameterCategory":1,"la1":30.2991,"la2":30.254,"lo1":-89.0895,"lo2":-89.0444,"dy":0.0017,"dx":0.0017,"nx":28,"ny":28,"refTime":"2024-07-16T03:00:00:Z","depth":0,"parameterNumber":2,"parameterNumberName":"U-component_of_WINDS"},"data":[0,0,0,0,0,0,0,0,0,0,0,0,0,0,0,0,0,0,0,0,0,0,0,0,0,0,0,0,0,0,0,0,0,0,0,0,0,0,0,0,0,0,0,0,0,0,0,0,0,0,0,0,0,0,0,0,0,0,2.0229,2.023,0,2.028,2.0281,2.0282,2.0254,2.0253,2.0252,2.025,2.0303,2.0305,2.0308,0,0,0,0,0,0,0,0,0,0,0,0,0,2.0105,2.0107,2.0229,2.023,2.023,2.028,2.0281,2.0282,2.0255,2.0253,2.0251,2.025,2.0302,2.0305,2.0308,0,0,0,0,0,0,0,0,0,0,0,0,0,2.0158,2.0108,2.0229,2.0223,2.0223,2.028,2.0281,2.0282,2.0255,2.0253,2.0251,2.0249,2.0301,2.0305,2.0308,2.0375,0,0,2.0321,2.0323,0,0,0,0,0,0,0,0,2.0155,2.0162,2.0223,2.0223,2.0223,2.0259,2.0256,2.0313,2.0255,2.0243,2.025,2.0248,2.029,2.0294,2.0309,2.0377,2.0379,2.0321,2.0324,2.0325,2.0326,0,0,0,0,0,0,0,2.0151,2.016,2.0249,2.0224,2.0224,2.0217,2.0222,2.0267,2.0277,2.0244,2.0242,2.0248,2.0289,2.0305,2.031,2.038,2.0321,2.0325,2.0327,2.0329,2.0503,2.0505,0,0,0,0,0,0,2.0148,2.0157,2.0248,2.0251,2.0183,2.0221,2.0226,2.025,2.0277,2.0279,2.025,2.0247,2.0299,2.0305,2.0311,2.0388,2.0325,2.0329,2.0331,2.05,2.0503,2.0505,0,0,0,0,0,0,2.0146,2.0157,2.0246,2.0204,2.0214,2.0225,2.0251,2.0252,2.0267,2.0281,2.0283,2.0264,2.0298,2.0306,2.0359,2.039,2.0331,2.0334,2.0498,2.0501,2.0504,2.0544,0,0,0,0,0,0,2.0142,2.0156,2.0182,2.0204,2.0217,2.0293,2.0253,2.0254,2.0274,2.027,2.0295,2.0297,2.0297,2.0353,2.0363,2.0394,2.0338,2.0495,2.0499,2.0503,2.054,2.0549,2.0556,0,0,0,0,0,2.0138,2.0192,2.0183,2.0194,2.0249,2.0295,2.0302,2.03,2.0277,2.0302,2.0311,2.0296,2.0385,2.0358,2.0369,2.0403,2.0493,2.0498,2.0503,2.0537,2.0547,2.0556,0,0,0,0,0,0,2.0173,2.0195,2.0185,2.0248,2.027,2.029,2.0322,2.0311,2.034,2.0335,2.0332,2.0338,2.0392,2.0403,2.0373,2.0467,2.0435,2.0443,2.0457,2.0467,2.0475,2.047,2.0341,0,0,0,0,0,2.0188,2.0223,2.024,2.0294,2.0305,2.0312,2.0331,2.0328,2.035,2.0359,2.0372,2.0394,2.0426,2.0448,2.0479,2.0542,2.0546,2.057,2.0578,2.0584,2.059,2.0622,2.0632,2.0522,2.0522,2.0522,0,0,2.0219,2.0235,2.0258,2.0301,2.0317,2.0353,2.032,2.0359,2.0385,2.0365,2.0415,2.0425,2.0449,2.0507,2.0533,2.0517,2.0622,2.0591,2.0596,2.0598,2.0628,2.0639,2.0648,2.0525,2.0524,2.0524,0,0,2.0294,2.0311,2.0356,2.0372,2.0397,2.0401,2.0412,2.0433,2.0439,2.0489,2.0474,2.0505,2.0562,2.0578,2.0594,2.0673,2.0659,2.0683,2.0723,2.0754,2.0763,2.077,2.0796,2.0806,2.0689,2.0689,2.069,0,2.0329,2.0383,2.038,2.042,2.0439,2.0422,2.0467,2.0483,2.0517,2.0529,2.0512,2.0581,2.0596,2.0656,2.0675,2.0689,2.07,2.068,2.0762,2.077,2.0777,2.0801,2.0811,2.0692,2.0692,2.0691,2.0691,0,2.0424,2.0461,2.0494,2.0526,2.0549,2.0591,2.0594,2.0617,2.0611,2.0617,2.0666,2.0684,2.0717,2.0731,2.0727,2.079,2.0779,2.0762,2.073,2.079,2.0812,2.0822,2.0696,2.0695,2.0694,2.0693,0,0,2.0522,2.0551,2.0563,2.0576,2.0601,2.063,2.067,2.0702,2.072,2.0744,2.0777,2.0824,2.0808,2.0826,2.0823,2.0851,2.0908,2.083,2.083,2.0842,2.0976,2.0987,2.0998,2.09,2.0902,2.0904,2.0973,0,2.0596,2.0667,2.0666,2.0731,2.0764,2.0748,2.0783,2.0802,2.0807,2.0835,2.0842,2.0874,2.0852,2.0862,2.0888,2.0896,2.0935,2.0891,2.0929,2.093,2.0921,2.1011,2.1023,2.1088,2.0983,2.0984,2.0985,0,2.0693,2.0718,2.0787,2.0805,2.0819,2.085,2.0878,2.0906,2.0926,2.0928,2.0947,2.0939,2.0979,2.0947,2.1001,2.0971,2.0986,2.0992,2.0994,2.0996,2.096,2.1013,2.1109,2.1118,2.1,2.0999,2.0998,0,2.0754,2.0806,2.0853,2.0865,2.0888,2.091,2.0921,2.0939,2.0957,2.0981,2.0993,2.1022,2.1037,2.1059,2.1059,2.1036,2.1112,2.1081,2.1113,2.1113,2.1129,2.1128,2.1227,2.1143,2.1142,2.1142,2.1142,0,2.0836,2.0878,2.088,2.0909,2.0955,2.0952,2.0998,2.1006,2.1022,2.1051,2.1039,2.1067,2.1066,2.1093,2.1093,2.1136,2.1144,2.1145,2.1145,2.1145,2.1145,2.1154,2.1149,2.1145,2.1144,2.1144,2.1143,0,2.0912,2.0915,2.0965,2.0982,2.0988,2.102,2.1035,2.1061,2.1066,2.1102,2.1111,2.1118,2.1149,2.1151,2.1188,2.1188,2.1239,2.1235,2.1232,2.1231,2.1262,2.1258,2.137,2.1383,2.1292,2.1293,2.1294,0,2.0963,2.0995,2.1015,2.1033,2.1045,2.1075,2.1093,2.1092,2.1111,2.1135,2.1158,2.1189,2.1213,2.1264,2.1271,2.1299,2.1293,2.133,2.1297,2.1296,2.1291,2.1288,2.129,2.1336,2.1337,2.1338,2.1339,0,2.1052,2.1052,2.1079,2.1106,2.1128,2.1149,2.1169,2.1185,2.1185,2.1207,2.1239,2.1258,2.1294,2.1324,2.135,2.136,2.1349,2.1349,2.1358,2.1358,2.1354,2.1354,2.1247,2.1346,2.1346,2.1345,2.1345,2.1344,2.1116,2.1142,2.1159,2.1189,2.1204,2.1222,2.1247,2.1254,2.128,2.131,2.1307,2.1342,2.1359,2.1394,2.1406,2.1432,2.1419,2.1432,2.1435,2.1438,2.144,2.1351,2.1437,2.1437,2.1437,2.1437,2.1436,0,2.1202,2.1212,2.124,2.1267,2.129,2.1278,2.1298,2.1318,2.1348,2.1366,2.1389,2.1425,2.1453,2.1462,2.1489,2.1508,2.1504,2.1515,2.1513,2.1515,2.1451,2.144,2.1519,2.1519,2.1519,2.1518,2.1518,2.1518,2.1249,2.1292,2.1294,2.1343,2.1353,2.1387,2.1399,2.1415,2.1429,2.1469,2.1492,2.1498,2.1511,2.1539,2.1564,2.1566,2.1575,2.1589,2.1588,2.1528,2.152,2.1512,2.1501,2.1591,2.1591,2.165,2.165,2.165]},{"header":{"parameterUnit":"m.s-1","parameterCategory":1,"la1":30.2991,"la2":30.254,"lo1":-89.0895,"lo2":-89.0444,"dy":0.0017,"dx":0.0017,"nx":28,"ny":28,"refTime":"2024-07-16T03:00:00:Z","depth":0,"parameterNumber":3,"parameterNumberName":"V-component_of_WINDS"},"data":[0,0,0,0,0,0,0,0,0,0,0,0,0,0,0,0,0,0,0,0,0,0,0,0,0,0,0,0,0,0,0,0,0,0,0,0,0,0,0,0,0,0,0,0,0,0,0,0,0,0,0,0,0,0,0,0,0,0,6.0922,6.0923,0,6.1003,6.1004,6.1005,6.0938,6.0935,6.0932,6.093,6.1005,6.101,6.1014,0,0,0,0,0,0,0,0,0,0,0,0,0,6.0702,6.0706,6.0922,6.0923,6.0924,6.1003,6.1004,6.1005,6.0938,6.0935,6.0932,6.0929,6.1004,6.1009,6.1015,0,0,0,0,0,0,0,0,0,0,0,0,0,6.0792,6.0708,6.0922,6.0901,6.09,6.1003,6.1004,6.1005,6.0939,6.0935,6.0931,6.0927,6.1002,6.1009,6.1016,6.1142,0,0,6.1037,6.104,0,0,0,0,0,0,0,0,6.0787,6.08,6.0903,6.0902,6.0901,6.0956,6.0954,6.1051,6.094,6.0924,6.093,6.0925,6.0992,6.0999,6.1023,6.1145,6.1149,6.1037,6.1042,6.1045,6.1046,0,0,0,0,0,0,0,6.078,6.0796,6.0954,6.0904,6.0903,6.0884,6.0892,6.0972,6.098,6.0925,6.092,6.0931,6.0991,6.1017,6.1025,6.115,6.1037,6.1043,6.1048,6.105,6.1376,6.138,0,0,0,0,0,0,6.0777,6.0791,6.0951,6.0956,6.0833,6.0892,6.0901,6.0943,6.0979,6.0981,6.0935,6.0928,6.1007,6.1017,6.1027,6.1175,6.1044,6.1051,6.1055,6.1371,6.1377,6.1382,0,0,0,0,0,0,6.0773,6.0792,6.0948,6.0873,6.0891,6.09,6.0948,6.0946,6.0973,6.0987,6.0987,6.0961,6.1004,6.1017,6.1114,6.1177,6.1054,6.106,6.1366,6.1373,6.1379,6.1474,0,0,0,0,0,0,6.0767,6.0791,6.0841,6.0874,6.0895,6.1036,6.0952,6.0951,6.0986,6.0978,6.1011,6.1012,6.1002,6.1104,6.112,6.1184,6.1066,6.136,6.1369,6.1377,6.1465,6.1483,6.1498,0,0,0,0,0,6.0759,6.0864,6.0844,6.0864,6.0958,6.104,6.1051,6.1039,6.0991,6.104,6.1048,6.1011,6.1168,6.1114,6.1132,6.1199,6.1356,6.1367,6.1376,6.1457,6.1479,6.1498,0,0,0,0,0,0,6.0836,6.0868,6.0846,6.0965,6.1001,6.1028,6.109,6.1063,6.1111,6.1101,6.1082,6.109,6.1191,6.1205,6.1144,6.1322,6.1254,6.1268,6.1309,6.133,6.1346,6.134,6.1071,0,0,0,0,0,6.0867,6.0933,6.0956,6.1058,6.1077,6.1081,6.1116,6.1104,6.1138,6.1152,6.1168,6.1201,6.1257,6.1294,6.1347,6.1467,6.1472,6.1522,6.1538,6.1552,6.1564,6.1626,6.1647,6.1415,6.1415,6.1415,0,0,6.0931,6.0956,6.0999,6.1074,6.11,6.1166,6.1094,6.1167,6.1214,6.1162,6.1254,6.1267,6.1302,6.141,6.1459,6.1425,6.1629,6.1565,6.1576,6.158,6.1638,6.166,6.168,6.1422,6.142,6.1419,0,0,6.1081,6.1108,6.1195,6.1223,6.1264,6.1265,6.1286,6.1319,6.1325,6.1418,6.138,6.1435,6.1533,6.1559,6.1585,6.1744,6.1711,6.1762,6.1848,6.1908,6.1927,6.1943,6.1997,6.2017,6.1774,6.1774,6.1774,0,6.1154,6.1255,6.1243,6.1319,6.1352,6.131,6.1396,6.1423,6.1478,6.15,6.1463,6.1584,6.1605,6.1717,6.1756,6.178,6.18,6.1757,6.1926,6.1942,6.1956,6.2008,6.2029,6.178,6.1779,6.1779,6.1778,0,6.1342,6.1412,6.1477,6.1533,6.1574,6.1655,6.1652,6.1694,6.1678,6.1682,6.1775,6.1799,6.1855,6.1881,6.1866,6.1991,6.1968,6.1929,6.1859,6.1984,6.2032,6.2052,6.1788,6.1786,6.1785,6.1783,0,0,6.1542,6.1591,6.1614,6.1639,6.168,6.1733,6.181,6.1867,6.1902,6.1941,6.2004,6.2087,6.205,6.208,6.2067,6.2121,6.2242,6.2073,6.2074,6.2102,6.2378,6.2407,6.243,6.2221,6.2225,6.2228,6.2374,0,6.1692,6.183,6.1821,6.1949,6.2011,6.1972,6.2039,6.207,6.2077,6.2128,6.2134,6.2193,6.2141,6.2158,6.221,6.2216,6.2297,6.2206,6.2276,6.2278,6.2266,6.2455,6.2486,6.2624,6.2393,6.2396,6.2399,0,6.1885,6.1933,6.2068,6.2099,6.2125,6.2186,6.2236,6.2287,6.2321,6.2321,6.2355,6.2332,6.2407,6.2338,6.2439,6.2378,6.2406,6.2413,6.2418,6.2423,6.2345,6.2463,6.2667,6.2687,6.2429,6.2426,6.2424,0,6.2015,6.2113,6.2206,6.2228,6.2267,6.231,6.2328,6.2357,6.2391,6.2434,6.2456,6.2507,6.2534,6.2572,6.2563,6.2514,6.2666,6.2596,6.2666,6.2666,6.2698,6.2696,6.2908,6.272,6.2719,6.2719,6.2719,0,6.2182,6.2266,6.2264,6.2321,6.2413,6.24,6.249,6.2502,6.2529,6.2585,6.2554,6.2607,6.2593,6.2645,6.2638,6.2721,6.2734,6.2734,6.2731,6.2736,6.2736,6.2753,6.2742,6.2724,6.2723,6.2722,6.2721,0,6.2341,6.2344,6.2443,6.2472,6.2481,6.2547,6.257,6.2622,6.2626,6.2698,6.2714,6.2719,6.2778,6.2773,6.2839,6.2834,6.2937,6.2923,6.2926,6.2923,6.2991,6.2984,6.322,6.325,6.3044,6.3046,6.3048,0,6.2447,6.2511,6.2547,6.2584,6.2605,6.2665,6.27,6.2689,6.2726,6.2769,6.2815,6.2872,6.2917,6.3012,6.302,6.307,6.3055,6.3135,6.3063,6.3065,6.3054,6.305,6.3055,6.3148,6.3151,6.3153,6.3154,0,6.2634,6.2632,6.2685,6.2739,6.2782,6.2823,6.286,6.2891,6.2884,6.2927,6.2988,6.3023,6.3091,6.3146,6.3193,6.3208,6.3179,6.3177,6.3195,6.32,6.3199,6.3198,6.2963,6.3171,6.317,6.3168,6.3167,6.3167,6.2768,6.2822,6.2856,6.2916,6.2943,6.2978,6.3029,6.3039,6.3091,6.3146,6.3137,6.3204,6.3234,6.3294,6.3314,6.3365,6.3336,6.3363,6.337,6.3376,6.3383,6.3192,6.3374,6.3373,6.3373,6.3372,6.3372,0,6.2951,6.2971,6.3026,6.308,6.3126,6.3098,6.3137,6.3177,6.3238,6.3269,6.3314,6.3383,6.3436,6.3449,6.3499,6.3537,6.3525,6.3551,6.3547,6.355,6.3407,6.3385,6.356,6.356,6.356,6.356,6.356,6.356,6.3052,6.3141,6.3143,6.3245,6.3263,6.3331,6.3356,6.3387,6.3412,6.3491,6.3536,6.3545,6.3567,6.3619,6.3666,6.3668,6.3687,6.3717,6.3714,6.3579,6.3561,6.3543,6.3522,6.3722,6.3722,6.3852,6.3853,6.3854]}]]